Вернуться в каталог

STARLINK-36922

АктивенСвязьSSO
NORAD 68123·PAYLOAD·🇺🇸 United States

Запущен Mar 8, 2026 с Vandenberg Space Force Base

Loading…

Ближайшие Пролёты (ближайшие 24 часа)

TLE

СвежийSource: CelesTrak SupGP

Эпоха: Sep 14, 2026, 23:32 UTC

1 68123C 26044Y   26257.98104167 -.00057743  00000+0 -17928-2 0  2577
2 68123  97.2851 217.0776 0001878  91.5007   6.8665 15.33461790    11

Отслеживайте STARLINK-36922 в реальном времени с AllMySat

Download on the App Store